Simultaneous Nadir Overpasses (SNOs) Predictions

Prediction of SNOs near equator between NOAA-19 and NPP Satellite Orbit:

Table of predicted SNOs near equator for the next 14.0 days since TLE Epoch: 7/2/2012
Index Date (NOAA-19) Time (NOAA-19) NOAA-19 Lat,Lon Date (NPP) Time (NPP) NPP Lat,Lon Distance(km) Time Diff (sec)
1 07/04/2012 04:48:19 -29.96, -54.04 07/04/2012 04:43:27 -29.74, -55.02 98.05 292
2 07/04/2012 05:39:21 29.98, 113.20 07/04/2012 05:34:16 29.77, 112.27 92.81 305
3 07/04/2012 06:30:24 -29.95, -79.56 07/04/2012 06:24:58 -29.80, -80.41 84.27 326
4 07/04/2012 07:21:26 29.97, 87.68 07/04/2012 07:15:47 29.84, 86.88 79.10 339
5 07/04/2012 08:12:30 -30.00,-105.09 07/04/2012 08:06:29 -29.86,-105.80 70.41 361
6 07/04/2012 09:03:31 29.96, 62.16 07/04/2012 08:57:17 29.84, 61.50 65.29 374
7 07/04/2012 09:54:35 -29.98,-130.61 07/04/2012 09:47:59 -29.87,-131.18 56.64 396
8 07/04/2012 10:45:36 29.95, 36.65 07/04/2012 10:38:47 29.84, 36.13 51.50 409
9 07/04/2012 11:36:40 -29.97,-156.13 07/04/2012 11:29:29 -29.87,-156.56 42.91 431
10 07/04/2012 12:27:42 29.99, 11.11 07/04/2012 12:20:18 29.91, 10.73 37.70 444
11 07/04/2012 13:18:45 -29.96, 178.36 07/04/2012 13:10:59 -29.87, 178.07 29.26 466
12 07/04/2012 14:09:47 29.98, -14.41 07/04/2012 14:01:48 29.91, -14.64 24.05 479
13 07/04/2012 15:00:50 -29.95, 152.84 07/04/2012 14:52:30 -29.94, 152.68 15.56 500
14 07/04/2012 15:51:52 29.97, -39.92 07/04/2012 15:43:19 29.97, -40.03 10.62 513
15 07/04/2012 16:42:50 -29.65, 127.40 07/04/2012 16:33:55 -29.65, 127.38 1
